This is the latest recevied weather packets stored in our database for station/object N6SPP. If no packets are shown the sender has not sent any weather packets the latest 10 day(s).
| Time | Temp. | Humidity | Pressure | Rain* | Wind** | Luminosity | Snow |
|---|---|---|---|---|---|---|---|
| 1777683459 | 24.44° C | 51% | 1013.2 hPa | 0 mm | - | 187 W/m² | - |
| 1777683157 | 25° C | 52% | 1013.3 hPa | 0 mm | - | 195 W/m² | - |
| 1777682853 | 25° C | 51% | 1013.3 hPa | 0 mm | - | 186 W/m² | - |
| 1777682550 | 25° C | 51% | 1013.2 hPa | 0 mm | - | 230 W/m² | - |
| 1777682248 | 25.56° C | 50% | 1013.1 hPa | 0 mm | - | 259 W/m² | - |
| 1777681945 | 26.11° C | 49% | 1013.2 hPa | 0 mm | - | 237 W/m² | - |
| 1777681640 | 25.56° C | 49% | 1013.2 hPa | 0 mm | - | 96 W/m² | - |
| 1777681338 | 25.56° C | 50% | 1013.1 hPa | 0 mm | - | 224 W/m² | - |
| 1777681035 | 25° C | 50% | 1013.3 hPa | 0 mm | - | 277 W/m² | - |
| 1777680733 | 25.56° C | 49% | 1013.3 hPa | 0 mm | - | 227 W/m² | - |
| 1777680430 | 25.56° C | 49% | 1013.2 hPa | 0 mm | - | 267 W/m² | - |
| 1777680128 | 25.56° C | 49% | 1013.3 hPa | 0 mm | - | 376 W/m² | - |
| 1777679824 | 25.56° C | 47% | 1013.4 hPa | 0 mm | - | 340 W/m² | - |
| 1777679520 | 26.11° C | 46% | 1013.4 hPa | 0 mm | - | 370 W/m² | - |
| 1777679215 | 25.56° C | 47% | 1013.3 hPa | 0 mm | - | 392 W/m² | - |
| 1777678913 | 25.56° C | 47% | 1013.4 hPa | 0 mm | - | 420 W/m² | - |
| 1777678611 | 26.11° C | 47% | 1013.5 hPa | 0 mm | - | 394 W/m² | - |
| 1777678308 | 25.56° C | 48% | 1013.7 hPa | 0 mm | - | 412 W/m² | - |
| 1777678004 | 25.56° C | 49% | 1013.4 hPa | 0 mm | - | 382 W/m² | - |
| 1777677702 | 25.56° C | 48% | 1013.5 hPa | 0 mm | - | 307 W/m² | - |
| 1777677399 | 25° C | 49% | 1013.6 hPa | 0 mm | - | 315 W/m² | - |
| 1777677097 | 25.56° C | 49% | 1013.6 hPa | 0 mm | - | 377 W/m² | - |
| 1777676795 | 25.56° C | 50% | 1013.9 hPa | 0 mm | - | 408 W/m² | - |
| 1777676493 | 25.56° C | 50% | 1013.8 hPa | 0 mm | - | 407 W/m² | - |
| 1777676190 | 26.11° C | 48% | 1013.9 hPa | 0 mm | - | 462 W/m² | - |
* Rain latest hour (hover to see other rain measurements)
** Current wind speed in m/s (hover to see current wind gust speed)